Location: Springville
(37.3745°N, 89.2676°W)
Time: 14:58:12
(UTC+00:00)

SL-4 R/B - Pass Details

Date: 29 October 2020
Orbit: 428 x 665 km, 51.6° (Epoch: 03 December)

Event Time Altitude Azimuth Distance (km) Brightness Sun altitude
Rises 23:52:47 0° 319° (NW) 2,445 5.8 -10.7°
Reaches altitude 10° 23:56:21 10° 358° (N) 1,618 4.3 -11.4°
Maximum altitude 23:57:25 11° 15° (NNE) 1,570 4.1 -11.6°
Drops below altitude 10° 23:58:31 10° 33° (NNE) 1,650 4.1 -11.8°
Enters shadow 23:58:45 10° 36° (NE) 1,682 4.1 -11.9°
